Home   Weather   Tel Aviv   Past weeks
Flag for Israel

Past Weather in Tel Aviv, Israel — Yesterday and Last 2 Weeks

Now
99 °F

Sunny.


Feels Like: 95 °F
Forecast: 86 / 78 °F
Wind: 21 mph from Southeast

Location: Ben Gurion International Airport

Current Time: Oct 15, 2019 at 12:19:27 pm

Latest Report: Oct 15, 2019 at 11:20 am


Visibility: 10 mi

Pressure: 29.89 "Hg

Humidity: 19%

Dew Point: 50 °F

Location of Tel AvivLocation

Past Weather in Tel Aviv — Graph

°F

Tel Aviv Temperature Yesterday

Maximum temperature yesterday: 91 °F (at 11:50 am)
Minimum temperature yesterday: 75 °F (at 3:50 am)
Average temperature yesterday: 81 °F

High & Low Weather Summary for the Past Weeks

 TemperatureHumidityPressure
High99 °F (Oct 15, 10:50 am)94% (Oct 15, 3:50 am)30.07 "Hg (Oct 15, 3:50 am)
Low68 °F (Oct 5, 4:50 am)19% (Oct 15, 11:20 am)29.80 "Hg (Sep 30, 4:50 pm)
Average79 °F67%29.91 "Hg
* Reported Sep 30 11:20 am — Oct 15 11:20 am, Tel Aviv. Weather by CustomWeather, © 2019

Note: Actual official high and low records may vary slightly from our data, if they occured in-between our weather recording intervals... More about our weather records

Advertising

Tel Aviv Weather History for the Previous 24 Hours

Scroll right to see more
 ConditionsComfort  
Time TempWeatherWind HumidityBarometerVisibility
11:20 am
Tue, Oct 15
99 °FSunny.21 mph19%29.89 "Hg10 mi
10:50 am99 °FSunny.17 mph21%29.89 "Hg10 mi
10:20 am97 °FPassing clouds.10 mph20%29.92 "HgN/A
9:50 am97 °FSunny.10 mph20%29.92 "Hg10 mi
9:20 am93 °FPassing clouds.3 mph26%29.92 "HgN/A
8:50 am88 °FPassing clouds.2 mph35%29.92 "HgN/A
8:20 am88 °FPassing clouds.5 mph52%29.92 "HgN/A
7:50 am81 °FPassing clouds.7 mph66%29.92 "HgN/A
7:20 am79 °FPassing clouds.7 mph84%29.92 "Hg6 mi
6:50 am77 °FClear.7 mph94%29.92 "Hg4 mi
6:20 am77 °FClear.2 mph89%29.92 "Hg5 mi
5:50 am77 °FClear.5 mph94%29.92 "Hg4 mi
5:20 am77 °FClear.3 mph94%29.92 "Hg5 mi
4:50 am77 °FClear.3 mph94%29.92 "Hg4 mi
4:20 am77 °FClear.7 mph89%29.92 "Hg6 mi
3:50 am77 °FClear.8 mph94%29.92 "Hg10 mi
3:20 am77 °FClear.7 mph89%29.89 "Hg10 mi
2:50 am77 °FClear.7 mph89%29.89 "Hg10 mi
2:20 am79 °FClear.3 mph84%29.89 "Hg10 mi
1:50 am79 °FPassing clouds.5 mph89%29.89 "HgN/A
1:20 am79 °FClear.8 mph89%29.92 "Hg10 mi
12:50 am79 °FClear.7 mph89%29.92 "Hg10 mi
12:20 am79 °FClear.5 mph89%29.95 "Hg10 mi
11:50 pm
Mon, Oct 14
81 °FClear.10 mph84%29.98 "Hg10 mi
11:20 pm81 °FClear.8 mph84%29.95 "Hg10 mi
10:50 pm81 °FPassing clouds.7 mph84%29.95 "HgN/A
10:20 pm81 °FPassing clouds.7 mph84%29.92 "HgN/A
9:50 pm79 °FClear.6 mph89%29.92 "Hg10 mi
9:20 pm81 °FPassing clouds.6 mph84%29.92 "HgN/A
8:50 pm81 °FLight rain. Clear.5 mph84%29.92 "HgN/A
8:20 pm81 °FClear.2 mph84%29.92 "Hg10 mi
7:50 pm81 °FPassing clouds.5 mph84%29.89 "HgN/A
7:20 pm81 °FPassing clouds.5 mph84%29.89 "HgN/A
6:50 pm82 °FPassing clouds.6 mph79%29.89 "HgN/A
6:20 pm82 °FPassing clouds.8 mph79%29.89 "HgN/A
5:50 pm82 °FPassing clouds.9 mph74%29.89 "HgN/A
5:20 pm84 °FSunny.10 mph70%29.89 "Hg10 mi
4:50 pm86 °FSunny.12 mph62%29.89 "Hg10 mi
4:20 pm88 °FSunny.10 mph59%29.89 "Hg10 mi
3:50 pm90 °FSunny.8 mph55%29.89 "Hg10 mi
3:20 pm90 °FSunny.7 mph55%29.89 "Hg10 mi
2:50 pm90 °FPassing clouds.6 mph55%29.92 "HgN/A
2:20 pm88 °FPassing clouds.9 mph59%29.92 "HgN/A
1:50 pm88 °FSunny.13 mph62%29.92 "Hg10 mi
1:20 pm90 °FSunny.14 mph59%29.92 "Hg10 mi
12:50 pm90 °FSunny.12 mph59%29.92 "Hg10 mi
12:20 pm90 °FPassing clouds.6 mph55%29.92 "HgN/A
Weather by CustomWeather, © 2019

See weather overview